Regional Weather Roundup
Issued by NWS Green Bay, WI

Home | Current Version | Previous Version | Graphics & Text | Print | Product List | Glossary Off
Versions: 1 2 3 4 5 6 7 8 9 10 11 12 13 14 15 16 17 18 19 20 21 22 23 24 25 26 27 28 29 30 31 32 33 34 35 36 37 38 39 40 41 42 43 44 45 46 47 48 49 50

000
ASUS43 KGRB 252011
RWRGRB

NORTH-CENTRAL AND NORTHEAST WISCONSIN REGIONAL WEATHER ROUNDUP
NATIONAL WEATHER SERVICE GREEN BAY WI
300 PM CDT MON SEP 25 2017

WIZ005-009-010>012-018-019-252100-
NORTH CENTRAL WISCONSIN

CITY           SKY/WX    TMP DP  RH WIND       PRES   REMARKS
IRONWOOD       CLOUDY    62  59  90 NW7       29.99S
MANITOWISH WTR NOT AVBL
ARBOR VITAE    MOSUNNY   80  65  61 CALM      29.93F
EAGLE RIVER    MOSUNNY   80  62  53 SW3       29.94F
LAND O LAKES   PTSUNNY   80  63  55 S3        29.97F
RHINELANDER    MOSUNNY   83  63  50 S8        29.95F
PHILLIPS       CLOUDY    80  65  60 CALM      29.92F
ANTIGO         MOSUNNY   85  63  48 S10G17    29.95F
TOMAHAWK       MOSUNNY   82  63  52 S3        29.93F
MERRILL        MOSUNNY   84  65  52 S7        29.93F
$$

WIZ013-073-252100-
NORTHEAST WISCONSIN

CITY           SKY/WX    TMP DP  RH WIND       PRES   REMARKS
IRON MOUNTAIN  PTSUNNY   83  64  52 W7        29.92F
MARINETTE      SUNNY     83  65  54 S12       29.93F
OCONTO         SUNNY     86  61  42 CALM      29.92F
$$

WIZ017-030-035>037-045-252100-
CENTRAL WISCONSIN

CITY           SKY/WX    TMP DP  RH WIND       PRES   REMARKS
MEDFORD        MOSUNNY   82  64  55 S7        29.93F
WAUSAU         MOSUNNY   86  62  44 S7        29.91F
MOSINEE        NOT AVBL
MARSHFIELD     PTSUNNY   84  64  50 S8        29.92S
WISC RAPIDS    MOSUNNY   88  64  44 S8G18     29.92F
STEVENS POINT  PTSUNNY   85  62  45 S9        29.93S
WAUPACA        MOSUNNY   91  60  36 S5        29.92F HX  90
SHAWANO        SUNNY     90  61  38 S6        29.92F
CLINTONVILLE   SUNNY     90  57  33 S8        29.91F
WAUTOMA        MOSUNNY   89  63  41 S7        29.91F HX  90
$$

WIZ038-039-048-051-252100-
FOX VALLEY

CITY           SKY/WX    TMP DP  RH WIND       PRES   REMARKS
NWS GREEN BAY  SUNNY     90  61  37 S9        29.92F HX  90
APPLETON       MOSUNNY   86  59  39 SE7       29.93F
OSHKOSH        SUNNY     87  63  44 S12       29.92F
FOND DU LAC    MOSUNNY   89  57  33 S9        29.92F
$$

WIZ022-050-052-252100-
EAST CENTRAL WISCONSIN

CITY           SKY/WX    TMP DP  RH WIND       PRES   REMARKS
EPHRAIM        FAIR      78  64  60 S10       29.94F
WASHINGTON ISL FAIR      74  67  77 S5        29.94F
STURGEON BAY   SUNNY     82  62  50 SE13      29.95F
MANITOWOC      MOSUNNY   80  66  62 SE9       29.95F
SHEBOYGAN      SUNNY     83  67  58 SE9       29.95F
$$

LMZ563-521-522-541>543-252100-
LAKESHORE

STATION/POSITION TIME  TEMP    WIND        PRES    VSBY  WAVE
                       AIR SEA DIR/SP/G                  HT/PER
                 (UTC) (F)     (DEG/KT/KT) (MB)    (MI)  (FT/S)
SHEBOYGAN LKSHOR 2000   71     160/  9/ 10 1013.7F
KEWAUNEE LKSHORE 1942   68     180/  8/ 11 1013.7F
NORTHPORT PIER   1940   74     160/  9/ 12 1013.9F
N MID LAKE BUOY  1950   70 68  180/ 10/ 12 1014.7F         1/ 3
S GREEN BAY BUOY 1900   79 71  330/  4/  4 1014.0F
MENOMINEE LKSHOR 1942   77     160/  6/  7 1013.3F
$$




USA.gov is the U.S. government's official web portal to all federal, state and local government web resources and services.